Radiation Dose at Monitoring Post of Fukushima Daini Nuclear Power Station
Date,Time,MP-1(microSv/h),MP-2(microSv/h),MP-3(microSv/h),MP-4(microSv/h),MP-5(microSv/h),MP-6(microSv/h),MP-7(microSv/h),Wind Direction,Wind Velocity(m/s),Rain
2017/05/26,00:00,0.365,0.222,0.380,0.349,0.321,0.184,0.139,north,5.0,No
2017/05/26,00:10,0.364,0.221,0.377,0.351,0.320,0.184,0.138,north,3.9,No
2017/05/26,00:20,0.368,0.222,0.378,0.351,0.321,0.184,0.139,north,4.9,No
2017/05/26,00:30,0.367,0.221,0.377,0.351,0.320,0.184,0.139,north,6.4,No
2017/05/26,00:40,0.367,0.222,0.379,0.349,0.322,0.184,0.139,north-northeast,6.7,No
2017/05/26,00:50,0.364,0.221,0.375,0.351,0.321,0.184,0.138,north,5.6,No
2017/05/26,01:00,0.366,0.222,0.380,0.349,0.322,0.184,0.140,north,5.3,No
2017/05/26,01:10,0.364,0.221,0.377,0.350,0.319,0.185,0.139,north-northeast,5.9,No
2017/05/26,01:20,0.367,0.221,0.379,0.348,0.322,0.184,0.139,north-northeast,6.1,No
2017/05/26,01:30,0.367,0.222,0.377,0.350,0.320,0.184,0.140,north-northeast,6.1,No
2017/05/26,01:40,0.367,0.221,0.380,0.349,0.322,0.184,0.138,north-northeast,4.5,No
2017/05/26,01:50,0.366,0.222,0.377,0.350,0.319,0.184,0.138,north-northeast,4.8,No
2017/05/26,02:00,0.367,0.221,0.379,0.348,0.322,0.183,0.139,north-northeast,4.5,No
2017/05/26,02:10,0.366,0.222,0.376,0.352,0.319,0.185,0.139,northeast,3.2,No
2017/05/26,02:20,0.367,0.221,0.381,0.347,0.322,0.184,0.139,northeast,3.4,No
2017/05/26,02:30,0.367,0.221,0.377,0.351,0.320,0.183,0.138,north-northeast,3.2,No
2017/05/26,02:40,0.367,0.222,0.379,0.348,0.322,0.184,0.138,north-northeast,3.4,No
2017/05/26,02:50,0.365,0.221,0.377,0.350,0.321,0.184,0.139,north-northeast,3.1,No
2017/05/26,03:00,0.366,0.223,0.379,0.348,0.322,0.184,0.138,north-northeast,3.2,No
2017/05/26,03:10,0.368,0.220,0.378,0.350,0.319,0.183,0.139,north,3.4,No
2017/05/26,03:20,0.367,0.221,0.380,0.349,0.322,0.184,0.137,north,4.1,No
2017/05/26,03:30,0.367,0.221,0.377,0.350,0.319,0.184,0.138,north,3.6,No
2017/05/26,03:40,0.366,0.220,0.378,0.349,0.322,0.184,0.139,north,3.6,No
2017/05/26,03:50,0.368,0.221,0.376,0.350,0.319,0.183,0.138,north-northwest,3.1,No
2017/05/26,04:00,0.365,0.221,0.377,0.348,0.323,0.185,0.138,northwest,1.3,No
2017/05/26,04:10,0.369,0.221,0.378,0.350,0.320,0.184,0.139,north-northwest,1.3,No
2017/05/26,04:20,0.366,0.222,0.377,0.349,0.321,0.185,0.140,north,0.8,No
2017/05/26,04:30,0.368,0.222,0.378,0.350,0.320,0.184,0.139,northeast,1.3,No
2017/05/26,04:40,0.366,0.222,0.378,0.350,0.321,0.185,0.139,northeast,1.2,No
2017/05/26,04:50,0.368,0.221,0.379,0.351,0.319,0.184,0.138,north-northeast,2.2,No
2017/05/26,05:00,0.366,0.224,0.377,0.348,0.321,0.185,0.139,north-northeast,2.9,No
2017/05/26,05:10,0.368,0.222,0.380,0.351,0.320,0.184,0.139,north-northeast,2.8,No
2017/05/26,05:20,0.366,0.222,0.378,0.350,0.320,0.184,0.138,north-northeast,3.0,No
2017/05/26,05:30,0.369,0.220,0.378,0.350,0.321,0.184,0.138,north-northeast,1.9,No
2017/05/26,05:40,0.365,0.223,0.377,0.348,0.322,0.184,0.139,northeast,2.8,No
2017/05/26,05:50,0.366,0.222,0.378,0.350,0.321,0.184,0.139,north-northeast,3.0,No
2017/05/26,06:00,0.365,0.222,0.377,0.350,0.321,0.184,0.139,north-northeast,2.7,No
2017/05/26,06:10,0.368,0.222,0.378,0.350,0.320,0.184,0.138,north-northeast,2.2,No
2017/05/26,06:20,0.366,0.222,0.376,0.349,0.321,0.184,0.139,north-northeast,2.5,No
2017/05/26,06:30,0.367,0.223,0.380,0.350,0.321,0.185,0.139,north-northeast,2.7,No
2017/05/26,06:40,0.365,0.222,0.376,0.350,0.321,0.185,0.139,north-northeast,1.3,No
2017/05/26,06:50,0.367,0.223,0.379,0.351,0.321,0.184,0.139,north-northeast,1.4,No
2017/05/26,07:00,0.366,0.222,0.377,0.350,0.322,0.184,0.138,north,1.5,No
2017/05/26,07:10,0.367,0.222,0.379,0.351,0.322,0.185,0.139,north,0.6,No
2017/05/26,07:20,0.364,0.222,0.377,0.348,0.321,0.184,0.138,north,1.7,No
2017/05/26,07:30,0.367,0.222,0.378,0.352,0.320,0.184,0.138,north,1.1,No
2017/05/26,07:40,0.366,0.221,0.376,0.349,0.322,0.185,0.139,west-northwest,0.8,No
2017/05/26,07:50,0.369,0.221,0.379,0.352,0.321,0.184,0.139,north-northwest,1.5,No
2017/05/26,08:00,0.365,0.221,0.376,0.348,0.322,0.186,0.138,north-northwest,1.7,No
2017/05/26,08:10,0.368,0.221,0.378,0.352,0.320,0.184,0.139,north-northwest,1.6,No
2017/05/26,08:20,0.365,0.221,0.376,0.347,0.322,0.184,0.140,northwest,1.0,No
2017/05/26,08:30,0.368,0.221,0.379,0.351,0.321,0.184,0.138,-,CALM,No
2017/05/26,08:40,0.366,0.223,0.378,0.348,0.323,0.185,0.139,-,CALM,No
2017/05/26,08:50,0.367,0.221,0.378,0.351,0.321,0.184,0.138,east-northeast,1.0,No
2017/05/26,09:00,0.368,0.222,0.377,0.349,0.322,0.185,0.138,east-northeast,0.7,No
2017/05/26,09:10,0.366,0.221,0.379,0.353,0.318,0.184,0.139,northwest,0.9,No
2017/05/26,09:20,0.367,0.223,0.378,0.350,0.323,0.184,0.139,-,CALM,No
2017/05/26,09:30,0.365,0.221,0.379,0.350,0.321,0.184,0.140,east-southeast,1.6,No
2017/05/26,09:40,0.366,0.223,0.376,0.349,0.320,0.185,0.138,-,CALM,No
2017/05/26,09:50,0.366,0.222,0.378,0.349,0.321,0.184,0.139,northwest,1.2,Yes
2017/05/26,10:00,0.369,0.223,0.377,0.350,0.321,0.184,0.139,west,0.8,No
2017/05/26,10:10,0.367,0.221,0.381,0.349,0.321,0.184,0.138,west-southwest,0.5,No
2017/05/26,10:20,0.368,0.221,0.375,0.351,0.319,0.184,0.139,west,0.8,No
2017/05/26,10:30,0.365,0.223,0.380,0.349,0.323,0.184,0.139,west-northwest,1.1,No
2017/05/26,10:40,0.369,0.223,0.375,0.352,0.320,0.185,0.139,-,CALM,Yes
2017/05/26,10:50,0.365,0.222,0.379,0.348,0.323,0.184,0.138,-,CALM,Yes
2017/05/26,11:00,0.370,0.221,0.376,0.352,0.319,0.185,0.140,east-southeast,1.5,Yes
2017/05/26,11:10,0.366,0.222,0.379,0.349,0.323,0.185,0.140,east-southeast,1.1,Yes
2017/05/26,11:20,0.368,0.222,0.377,0.352,0.321,0.185,0.139,east,2.5,Yes
2017/05/26,11:30,0.367,0.222,0.381,0.348,0.322,0.184,0.138,east-southeast,2.9,Yes
2017/05/26,11:40,0.369,0.223,0.377,0.352,0.322,0.185,0.139,east-southeast,1.6,Yes
2017/05/26,11:50,0.367,0.224,0.380,0.349,0.322,0.185,0.139,east,0.8,Yes
2017/05/26,12:00,0.369,0.222,0.377,0.352,0.321,0.185,0.139,southwest,1.0,Yes
2017/05/26,12:10,0.367,0.223,0.381,0.351,0.322,0.185,0.140,-,CALM,Yes
2017/05/26,12:20,0.369,0.223,0.378,0.353,0.322,0.185,0.140,south-southeast,1.4,Yes
2017/05/26,12:30,0.367,0.222,0.378,0.350,0.322,0.185,0.139,east-southeast,1.0,Yes
2017/05/26,12:40,0.367,0.223,0.377,0.351,0.323,0.185,0.138,-,CALM,No
2017/05/26,12:50,0.368,0.222,0.380,0.351,0.322,0.186,0.139,-,CALM,No
2017/05/26,13:00,0.367,0.223,0.378,0.353,0.322,0.186,0.138,-,CALM,No
2017/05/26,13:10,0.368,0.222,0.380,0.349,0.320,0.185,0.140,southeast,0.8,No
2017/05/26,13:20,0.367,0.222,0.378,0.351,0.325,0.186,0.139,southeast,1.4,No
2017/05/26,13:30,0.367,0.221,0.380,0.349,0.321,0.185,0.140,east-southeast,4.2,No
2017/05/26,13:40,0.367,0.223,0.376,0.351,0.324,0.185,0.140,east,3.7,No
2017/05/26,13:50,0.369,0.221,0.381,0.348,0.321,0.185,0.140,northeast,1.4,No
2017/05/26,14:00,0.366,0.223,0.378,0.351,0.323,0.184,0.139,northeast,3.0,Yes
2017/05/26,14:10,0.368,0.223,0.380,0.351,0.321,0.185,0.139,east-northeast,1.1,No
2017/05/26,14:20,0.368,0.222,0.378,0.353,0.323,0.186,0.139,west-northwest,3.5,No
2017/05/26,14:30,0.370,0.224,0.381,0.349,0.321,0.185,0.139,northwest,3.8,No
2017/05/26,14:40,0.367,0.222,0.379,0.352,0.323,0.186,0.139,north,3.9,No
2017/05/26,14:50,0.368,0.224,0.380,0.349,0.321,0.185,0.140,north-northeast,4.0,No
2017/05/26,15:00,0.368,0.222,0.379,0.352,0.324,0.184,0.140,north,3.9,No
2017/05/26,15:10,0.368,0.223,0.381,0.348,0.321,0.184,0.140,north,4.5,No
2017/05/26,15:20,0.369,0.223,0.379,0.353,0.323,0.185,0.138,north-northeast,4.9,No
2017/05/26,15:30,0.368,0.222,0.381,0.350,0.321,0.185,0.139,north-northeast,5.3,No
2017/05/26,15:40,0.369,0.222,0.379,0.351,0.324,0.185,0.139,north-northeast,6.4,No
2017/05/26,15:50,0.368,0.221,0.381,0.350,0.321,0.186,0.140,north-northeast,6.1,No
2017/05/26,16:00,0.369,0.223,0.380,0.351,0.323,0.186,0.139,north,5.7,No
2017/05/26,16:10,0.368,0.220,0.379,0.350,0.321,0.184,0.139,north,4.0,No
2017/05/26,16:20,0.368,0.222,0.380,0.351,0.323,0.186,0.140,north,6.3,No
2017/05/26,16:30,0.368,0.223,0.379,0.353,0.320,0.184,0.139,north,4.8,No
2017/05/26,16:40,0.371,0.221,0.379,0.350,0.323,0.186,0.140,north,4.8,No
2017/05/26,16:50,0.367,0.222,0.379,0.351,0.320,0.184,0.138,north-northeast,5.3,No
2017/05/26,17:00,0.369,0.221,0.379,0.350,0.322,0.185,0.138,north,6.7,No
2017/05/26,17:10,0.368,0.223,0.379,0.352,0.319,0.184,0.139,north,4.5,No
2017/05/26,17:20,0.370,0.222,0.379,0.349,0.323,0.184,0.139,north,4.1,No
2017/05/26,17:30,0.366,0.223,0.379,0.352,0.322,0.185,0.139,north-northwest,3.1,No
2017/05/26,17:40,0.370,0.221,0.381,0.349,0.324,0.185,0.139,north-northwest,3.2,No
2017/05/26,17:50,0.367,0.222,0.379,0.352,0.320,0.185,0.139,north,3.1,No
2017/05/26,18:00,0.368,0.222,0.381,0.348,0.322,0.184,0.139,north,3.9,No
2017/05/26,18:10,0.366,0.222,0.377,0.352,0.322,0.185,0.139,north,2.6,No
2017/05/26,18:20,0.370,0.223,0.382,0.350,0.324,0.185,0.138,north,3.8,No
2017/05/26,18:30,0.367,0.225,0.378,0.352,0.321,0.185,0.139,north,4.0,No
2017/05/26,18:40,0.369,0.224,0.380,0.348,0.323,0.184,0.139,north,4.1,No
2017/05/26,18:50,0.367,0.222,0.379,0.353,0.322,0.185,0.139,north,3.6,No
2017/05/26,19:00,0.369,0.224,0.381,0.348,0.324,0.185,0.139,north,4.4,No
2017/05/26,19:10,0.368,0.223,0.379,0.353,0.322,0.185,0.138,north-northeast,4.4,No
2017/05/26,19:20,0.369,0.222,0.381,0.349,0.322,0.184,0.139,north,5.3,No
2017/05/26,19:30,0.367,0.222,0.377,0.353,0.322,0.185,0.139,north,4.0,No
2017/05/26,19:40,0.368,0.223,0.381,0.350,0.322,0.185,0.139,north-northeast,4.2,No
2017/05/26,19:50,0.369,0.222,0.379,0.353,0.322,0.185,0.139,north-northeast,3.6,No
2017/05/26,20:00,0.368,0.223,0.379,0.350,0.321,0.184,0.138,north,3.4,No
2017/05/26,20:10,0.369,0.223,0.380,0.352,0.323,0.185,0.139,north-northeast,3.7,No
2017/05/26,20:20,0.368,0.222,0.378,0.351,0.322,0.185,0.138,north,3.1,No
2017/05/26,20:30,0.369,0.221,0.380,0.351,0.324,0.186,0.139,north,3.7,No
2017/05/26,20:40,0.367,0.222,0.379,0.351,0.321,0.185,0.138,north,2.9,No
2017/05/26,20:50,0.369,0.224,0.381,0.351,0.322,0.185,0.139,north,4.2,No
2017/05/26,21:00,0.368,0.221,0.379,0.352,0.321,0.184,0.139,north,3.1,No
2017/05/26,21:10,0.369,0.222,0.380,0.352,0.323,0.185,0.138,north,4.2,No
2017/05/26,21:20,0.368,0.221,0.380,0.351,0.321,0.185,0.140,north,1.9,No
2017/05/26,21:30,0.369,0.223,0.380,0.350,0.322,0.184,0.139,north,3.2,No
2017/05/26,21:40,0.368,0.225,0.378,0.351,0.321,0.185,0.140,north,2.2,No
2017/05/26,21:50,0.369,0.222,0.379,0.350,0.321,0.185,0.138,north,2.4,No
2017/05/26,22:00,0.369,0.222,0.380,0.352,0.322,0.185,0.139,north-northeast,2.9,No
2017/05/26,22:10,0.368,0.222,0.379,0.350,0.320,0.185,0.139,north-northeast,3.7,No
2017/05/26,22:20,0.369,0.223,0.381,0.352,0.322,0.185,0.139,north,2.9,No
2017/05/26,22:30,0.367,0.222,0.378,0.350,0.320,0.185,0.139,north-northeast,3.1,No
2017/05/26,22:40,0.370,0.223,0.381,0.352,0.324,0.184,0.139,north,5.0,No
2017/05/26,22:50,0.367,0.223,0.379,0.349,0.321,0.186,0.139,north,5.0,No
2017/05/26,23:00,0.369,0.223,0.379,0.352,0.322,0.185,0.139,north,5.2,No
2017/05/26,23:10,0.367,0.223,0.380,0.349,0.322,0.185,0.139,north,5.4,No
2017/05/26,23:20,0.369,0.224,0.379,0.352,0.321,0.185,0.139,north,2.5,No
2017/05/26,23:30,0.369,0.222,0.380,0.352,0.322,0.185,0.140,north,3.8,No
2017/05/26,23:40,0.368,0.222,0.378,0.349,0.319,0.186,0.139,north,5.1,No
2017/05/26,23:50,0.370,0.223,0.381,0.351,0.324,0.186,0.139,north,3.7,No
